Wind_Speed
17 16 15 14 15 15 13 12 12 12 15 15 16 19 21 23 25 25 27 29 30 32 32 33 37 37 38 39 42 44 43 42 42
22 21 19 19 19 19 19 18 17 17 17 19 19 22 23 25 26 28 29 30 31 32 33 34 34 37 39 41 42 44 45 43 43
26 24 24 24 25 25 24 22 21 20 21 24 24 25 25 27 29 31 31 32 33 35 36 36 38 41 47 49 48 48 43 42 42
31 30 28 27 28 29 28 26 24 23 23 26 29 29 30 34 36 36 40 43 43 41 40 40 38 41 47 49 48 45 41 43 41
36 33 32 31 30 32 32 32 31 30 30 31 33 35 37 41 41 43 43 43 47 49 49 44 46 48 48 48 50 46 39 35 39
37 36 35 34 36 35 36 35 36 35 33 33 33 38 40 42 45 49 49 50 51 52 49 47 46 50 50 54 51 45 41 40 41
40 40 39 38 37 35 38 37 39 38 35 37 39 41 42 46 51 49 49 47 46 46 45 44 46 50 50 54 55 51 44 44 46
41 38 37 38 39 38 38 37 38 39 41 41 40 44 49 49 48 47 42 41 45 47 49 48 47 49 50 52 53 49 45 46 43
44 44 42 41 44 44 44 44 42 41 37 42 46 51 48 48 46 41 42 43 45 48 47 45 48 48 52 51 55 52 48 46 46
50 48 45 44 45 45 43 42 42 43 45 47 50 48 49 45 40 40 43 44 45 48 49 49 50 49 48 53 53 52 48 44 43
54 51 46 47 45 43 43 45 46 48 50 52 49 48 45 40 39 42 41 45 47 48 51 53 52 49 49 50 54 50 48 41 40
53 50 46 45 44 45 48 50 51 51 54 53 50 48 41 40 43 44 46 47 48 51 54 55 54 48 52 48 53 54 47 43 41
49 49 47 50 51 53 55 56 57 59 58 53 49 46 40 41 42 43 46 48 49 54 56 57 56 49 52 47 51 52 48 43 39
61 60 59 61 61 61 61 61 61 60 55 51 49 45 42 43 41 43 46 49 49 52 57 59 58 54 52 48 47 52 46 40 42
69 68 66 66 65 66 65 63 62 58 55 52 46 45 46 43 43 44 47 50 50 54 59 60 59 58 54 51 45 49 50 42 42
73 72 69 68 68 66 65 64 61 58 51 47 46 45 43 43 46 46 49 52 54 56 60 61 61 60 57 53 46 46 50 47 47
73 72 71 70 67 67 64 60 56 50 49 49 47 46 44 46 48 50 52 54 56 59 60 62 63 60 58 55 45 42 50 49 49
75 71 68 66 64 61 57 51 49 48 48 48 47 46 46 48 50 52 55 57 59 60 61 63 65 60 60 57 49 41 46 52 50
70 66 63 60 59 56 52 50 49 48 49 46 45 46 49 51 53 54 57 60 61 62 63 63 64 63 60 58 53 43 44 47 52
63 60 58 57 55 52 51 50 52 51 49 49 48 50 52 54 57 58 60 61 62 63 63 64 63 64 60 59 55 50 49 48 47
Wind_Direction
238 240 234 247 247 247 246 255 267 265 270 275 282 285 289 292 295 295 295 295 291 298 300 301 303 301 305 308 307 309 313 315 318
236 245 245 247 247 253 258 266 270 276 276 276 279 281 285 287 291 292 292 292 292 293 295 297 302 302 301 299 301 305 309 313 316
236 243 248 245 247 249 250 254 259 261 264 268 275 285 288 289 289 293 294 295 294 295 296 297 299 299 299 299 300 306 311 314 316
241 248 249 252 257 256 256 251 254 257 261 268 278 282 285 291 296 297 296 293 293 294 295 297 299 302 302 299 304 309 310 311 312
245 244 246 253 258 264 258 255 258 259 266 273 282 287 291 298 302 302 301 300 299 300 301 298 296 297 304 305 304 309 312 312 313
242 245 248 256 259 260 262 260 265 269 270 274 281 285 293 295 300 302 303 303 301 301 303 303 300 298 297 300 305 308 307 308 311
246 248 252 255 259 262 262 264 268 273 276 279 284 290 290 297 300 303 302 301 303 306 308 308 309 307 304 299 299 302 304 306 313
249 249 252 257 260 259 262 264 266 269 278 280 282 289 294 297 300 301 302 304 307 308 309 308 308 310 304 301 297 297 299 306 311
245 247 250 254 257 260 262 265 269 273 274 278 282 291 295 297 298 299 301 304 303 306 310 310 311 316 310 303 299 301 301 306 311
246 250 255 258 261 263 265 267 268 271 275 282 288 292 296 296 295 298 300 299 306 310 314 315 315 315 308 300 298 299 302 307 311
249 252 254 258 262 263 263 264 268 272 278 287 289 292 292 290 291 296 301 306 308 312 314 318 319 317 312 300 297 295 304 304 304
250 252 255 258 259 259 259 262 272 277 284 286 288 289 285 284 288 295 300 303 306 311 313 317 320 317 316 300 296 297 303 302 301
250 252 251 253 255 258 264 268 274 279 282 283 285 283 278 284 291 295 300 303 306 309 312 314 319 318 317 301 292 296 301 300 306
249 251 252 256 260 264 267 271 275 278 278 279 278 274 276 284 289 295 300 303 306 309 310 313 317 319 317 305 291 290 299 298 304
251 254 255 259 262 265 269 271 273 273 274 275 272 271 274 281 288 293 299 304 306 307 309 311 315 316 315 312 292 286 291 296 295
251 254 256 258 261 264 266 268 270 271 269 266 264 269 275 282 285 293 297 300 304 307 309 310 312 313 313 314 298 286 285 289 294
251 253 255 258 260 262 265 266 265 262 260 260 265 269 275 280 287 290 295 297 304 307 308 307 311 310 310 313 305 282 285 286 289
251 253 254 256 258 259 259 255 255 257 258 261 264 270 278 281 285 290 294 297 301 305 306 306 308 308 309 310 309 278 280 286 288
248 250 249 249 251 250 248 248 250 253 257 261 266 272 276 280 284 289 292 295 298 303 304 303 305 306 305 308 310 293 270 277 285
241 241 242 242 244 242 244 245 248 254 258 262 266 270 275 280 284 288 291 294 298 301 302 301 302 304 304 306 307 301 280 268 275
Height
10877 10877 10878 10879 10879 10879 10880 10881 10881 10881 10881 10881 10882 10881 10881 10879 10878 10876 10874 10873 10872 10870 10868 10866 10863 10860 10858 10855 10852 10849 10847 10843 10839
10872 10874 10875 10875 10876 10876 10877 10877 10878 10878 10878 10878 10878 10877 10877 10875 10875 10872 10870 10868 10866 10865 10863 10860 10857 10854 10851 10849 10846 10844 10842 10838 10834
10868 10870 10871 10872 10872 10872 10873 10874 10875 10875 10874 10873 10874 10874 10873 10872 10871 10869 10866 10864 10862 10860 10859 10856 10852 10847 10843 10841 10841 10840 10836 10832 10828
10864 10866 10867 10868 10868 10868 10869 10869 10869 10870 10869 10868 10868 10869 10869 10867 10867 10865 10862 10859 10857 10855 10854 10852 10848 10843 10837 10832 10832 10832 10829 10826 10822
10858 10860 10862 10863 10863 10863 10864 10864 10864 10865 10865 10865 10864 10864 10864 10862 10861 10859 10856 10853 10850 10847 10847 10846 10843 10839 10832 10823 10825 10824 10822 10819 10815
10853 10855 10857 10858 10858 10858 10859 10859 10859 10859 10861 10861 10859 10859 10859 10857 10855 10853 10850 10847 10842 10839 10838 10837 10836 10832 10827 10818 10818 10817 10815 10813 10809
10846 10849 10852 10852 10851 10853 10852 10853 10853 10854 10854 10855 10854 10853 10852 10852 10849 10847 10843 10839 10835 10832 10832 10830 10828 10823 10819 10813 10810 10809 10806 10805 10803
10839 10842 10844 10846 10845 10847 10846 10846 10847 10848 10849 10849 10847 10846 10846 10844 10843 10840 10836 10832 10829 10826 10824 10823 10821 10817 10811 10805 10801 10801 10799 10797 10796
10831 10834 10837 10839 10839 10839 10840 10840 10840 10841 10842 10842 10841 10840 10838 10837 10835 10833 10830 10828 10825 10821 10818 10816 10814 10810 10803 10798 10792 10792 10792 10791 10789
10822 10826 10830 10830 10831 10832 10833 10833 10833 10834 10834 10835 10835 10833 10832 10830 10828 10827 10825 10821 10819 10815 10811 10808 10806 10803 10796 10789 10785 10784 10784 10783 10781
10813 10817 10822 10821 10823 10824 10825 10825 10826 10826 10826 10827 10828 10826 10824 10823 10823 10820 10818 10814 10811 10808 10803 10800 10798 10795 10788 10782 10776 10776 10778 10776 10775
10803 10807 10812 10812 10814 10816 10817 10817 10817 10817 10817 10818 10819 10819 10818 10817 10815 10813 10810 10807 10804 10800 10796 10792 10790 10786 10780 10776 10769 10768 10770 10768 10767
10792 10797 10802 10802 10805 10806 10807 10808 10809 10809 10810 10810 10810 10810 10810 10809 10808 10805 10802 10799 10797 10792 10788 10785 10782 10780 10773 10768 10763 10761 10762 10760 10759
10781 10786 10791 10792 10794 10795 10797 10798 10799 10800 10801 10801 10801 10802 10802 10801 10800 10797 10794 10791 10790 10784 10780 10777 10775 10771 10766 10760 10756 10752 10755 10754 10751
10769 10774 10779 10781 10783 10784 10786 10788 10789 10790 10790 10792 10793 10793 10793 10793 10791 10789 10785 10783 10781 10776 10771 10768 10766 10762 10758 10753 10749 10746 10745 10746 10745
10757 10761 10766 10770 10771 10774 10775 10777 10778 10780 10781 10783 10784 10785 10784 10783 10782 10780 10777 10773 10772 10768 10762 10758 10757 10753 10748 10745 10741 10739 10737 10737 10736
10743 10748 10752 10757 10760 10762 10764 10766 10767 10769 10771 10773 10776 10775 10774 10774 10773 10771 10768 10766 10762 10759 10755 10749 10747 10744 10739 10737 10733 10732 10728 10728 10727
10730 10736 10741 10745 10748 10749 10752 10754 10756 10759 10762 10764 10766 10765 10764 10765 10763 10761 10759 10756 10753 10750 10746 10741 10737 10735 10729 10726 10723 10723 10720 10717 10716
10716 10723 10727 10731 10734 10736 10740 10743 10747 10750 10752 10754 10755 10755 10754 10754 10752 10752 10749 10746 10744 10740 10736 10732 10727 10725 10721 10717 10714 10712 10712 10708 10706
10702 10708 10714 10718 10723 10725 10729 10733 10736 10740 10741 10742 10744 10743 10744 10743 10742 10740 10740 10736 10732 10729 10726 10721 10717 10715 10712 10706 10704 10700 10698 10699 10697